Time,TemperatureF,DewpointF,PressureIn,WindDirection,WindDirectionDegrees,WindSpeedMPH,WindSpeedGustMPH,Humidity,HourlyPrecipIn,Conditions,Clouds,dailyrainin,SoftwareType,DateUTC
2015-03-27 00:02:00,50.4,39.7,30.20,NE,38,0.9,1.0,67,0.00,,,0.00,meteobridge,2015-03-27 05:02:00,
2015-03-27 00:07:00,50.2,40.8,30.20,NE,38,0.0,1.0,70,0.00,,,0.00,meteobridge,2015-03-27 05:07:00,
2015-03-27 00:13:00,49.8,40.8,30.20,NE,38,0.0,0.0,71,0.00,,,0.00,meteobridge,2015-03-27 05:13:00,
2015-03-27 00:18:00,49.6,42.1,30.20,NE,38,0.0,1.0,75,0.00,,,0.00,meteobridge,2015-03-27 05:18:00,
2015-03-27 00:23:00,49.5,42.3,30.20,NE,38,0.0,1.0,76,0.00,,,0.00,meteobridge,2015-03-27 05:23:00,
2015-03-27 00:28:00,49.3,42.4,30.20,NE,38,0.0,1.0,77,0.00,,,0.00,meteobridge,2015-03-27 05:28:00,
2015-03-27 00:33:00,49.3,42.4,30.20,NE,38,0.0,1.0,77,0.00,,,0.00,meteobridge,2015-03-27 05:33:00,
2015-03-27 00:38:00,48.9,42.1,30.20,NE,38,0.0,1.0,77,0.00,,,0.00,meteobridge,2015-03-27 05:38:00,
2015-03-27 00:43:00,48.9,42.4,30.20,NE,38,0.0,1.0,78,0.00,,,0.00,meteobridge,2015-03-27 05:43:00,
2015-03-27 00:48:00,48.7,42.3,30.20,NE,38,0.9,2.0,78,0.00,,,0.00,meteobridge,2015-03-27 05:48:00,
2015-03-27 00:54:00,48.6,42.1,30.20,NE,38,0.0,1.0,78,0.00,,,0.00,meteobridge,2015-03-27 05:54:00,
2015-03-27 00:59:00,48.6,41.4,30.20,NE,38,0.9,1.0,76,0.00,,,0.00,meteobridge,2015-03-27 05:59:00,
2015-03-27 01:04:00,48.6,41.4,30.19,NE,38,0.9,2.0,76,0.00,,,0.00,meteobridge,2015-03-27 06:04:00,
2015-03-27 01:09:00,48.7,41.2,30.20,NE,38,0.9,1.0,75,0.00,,,0.00,meteobridge,2015-03-27 06:09:00,
2015-03-27 01:14:00,48.9,40.3,30.20,NE,38,0.0,1.0,72,0.00,,,0.00,meteobridge,2015-03-27 06:14:00,
2015-03-27 01:19:00,48.9,40.6,30.19,NE,38,0.0,0.0,73,0.00,,,0.00,meteobridge,2015-03-27 06:19:00,
2015-03-27 01:24:00,48.9,40.6,30.19,NE,38,0.0,1.0,73,0.00,,,0.00,meteobridge,2015-03-27 06:24:00,
2015-03-27 01:29:00,48.7,40.5,30.19,NE,38,0.9,1.0,73,0.00,,,0.00,meteobridge,2015-03-27 06:29:00,
2015-03-27 01:34:00,48.7,40.5,30.19,NE,38,0.0,1.0,73,0.00,,,0.00,meteobridge,2015-03-27 06:34:00,
2015-03-27 01:39:00,48.7,40.1,30.19,NE,38,0.0,2.0,72,0.00,,,0.00,meteobridge,2015-03-27 06:39:00,
2015-03-27 01:44:00,48.7,40.1,30.19,NE,38,2.0,2.0,72,0.00,,,0.00,meteobridge,2015-03-27 06:44:00,
2015-03-27 01:49:00,48.9,40.3,30.19,NE,38,0.9,2.0,72,0.00,,,0.00,meteobridge,2015-03-27 06:49:00,
2015-03-27 01:54:00,48.7,40.5,30.19,NE,38,0.0,2.0,73,0.00,,,0.00,meteobridge,2015-03-27 06:54:00,
2015-03-27 01:59:00,48.6,40.6,30.20,NE,38,0.9,2.0,74,0.00,,,0.00,meteobridge,2015-03-27 06:59:00,
2015-03-27 02:04:00,48.2,40.6,30.19,ESE,105,0.9,4.0,75,0.00,,,0.00,meteobridge,2015-03-27 07:04:00,
2015-03-27 02:09:00,47.7,40.5,30.19,ESE,105,0.0,0.0,76,0.00,,,0.00,meteobridge,2015-03-27 07:09:00,
2015-03-27 02:14:00,47.5,40.6,30.19,ESE,105,0.0,0.0,77,0.00,,,0.00,meteobridge,2015-03-27 07:14:00,
2015-03-27 02:20:00,47.3,40.5,30.19,ESE,105,0.0,0.0,77,0.00,,,0.00,meteobridge,2015-03-27 07:20:00,
2015-03-27 02:25:00,47.1,40.6,30.19,ESE,105,0.0,1.0,78,0.00,,,0.00,meteobridge,2015-03-27 07:25:00,
2015-03-27 02:30:00,46.9,40.8,30.19,ESE,105,0.0,1.0,79,0.00,,,0.00,meteobridge,2015-03-27 07:30:00,
2015-03-27 02:35:00,46.8,39.9,30.19,ESE,105,0.0,1.0,77,0.00,,,0.00,meteobridge,2015-03-27 07:35:00,
2015-03-27 02:40:00,46.6,40.5,30.18,ESE,105,0.9,1.0,79,0.00,,,0.00,meteobridge,2015-03-27 07:40:00,
2015-03-27 02:45:00,46.4,40.6,30.18,ESE,105,0.9,1.0,80,0.00,,,0.00,meteobridge,2015-03-27 07:45:00,
2015-03-27 02:50:00,46.2,40.5,30.18,ESE,105,0.0,1.0,80,0.00,,,0.00,meteobridge,2015-03-27 07:50:00,
2015-03-27 02:55:00,46.0,40.3,30.18,ESE,105,0.0,0.0,80,0.00,,,0.00,meteobridge,2015-03-27 07:55:00,
2015-03-27 03:00:00,46.0,40.3,30.18,ESE,105,0.9,1.0,80,0.00,,,0.00,meteobridge,2015-03-27 08:00:00,
2015-03-27 03:05:00,46.0,39.9,30.18,ESE,105,0.9,1.0,79,0.00,,,0.00,meteobridge,2015-03-27 08:05:00,
2015-03-27 03:11:00,45.9,39.7,30.18,ESE,105,0.0,0.0,79,0.00,,,0.00,meteobridge,2015-03-27 08:11:00,
2015-03-27 03:16:00,45.9,40.1,30.17,ESE,105,0.0,0.0,80,0.00,,,0.00,meteobridge,2015-03-27 08:16:00,
2015-03-27 03:21:00,45.5,39.7,30.17,ESE,105,0.0,1.0,80,0.00,,,0.00,meteobridge,2015-03-27 08:21:00,
2015-03-27 03:26:00,45.1,39.4,30.17,ESE,105,0.0,0.0,80,0.00,,,0.00,meteobridge,2015-03-27 08:26:00,
2015-03-27 03:31:00,45.1,39.4,30.17,ESE,105,0.0,1.0,80,0.00,,,0.00,meteobridge,2015-03-27 08:31:00,
2015-03-27 03:36:00,45.0,39.2,30.17,ESE,105,0.9,1.0,80,0.00,,,0.00,meteobridge,2015-03-27 08:36:00,
2015-03-27 03:41:00,45.0,39.6,30.16,ESE,105,0.9,1.0,81,0.00,,,0.00,meteobridge,2015-03-27 08:41:00,
2015-03-27 03:46:00,45.0,39.7,30.16,ESE,105,0.0,1.0,82,0.00,,,0.00,meteobridge,2015-03-27 08:46:00,
2015-03-27 03:51:00,44.8,39.6,30.16,ESE,105,0.0,1.0,82,0.00,,,0.00,meteobridge,2015-03-27 08:51:00,
2015-03-27 03:57:00,45.0,39.7,30.16,ESE,105,0.0,1.0,82,0.00,,,0.00,meteobridge,2015-03-27 08:57:00,
2015-03-27 04:02:00,45.0,40.1,30.16,ESE,105,0.0,1.0,83,0.00,,,0.00,meteobridge,2015-03-27 09:02:00,
2015-03-27 04:07:00,44.8,39.6,30.16,ESE,105,0.0,0.0,82,0.00,,,0.00,meteobridge,2015-03-27 09:07:00,
2015-03-27 04:12:00,44.8,39.6,30.16,ESE,105,0.0,0.0,82,0.00,,,0.00,meteobridge,2015-03-27 09:12:00,
2015-03-27 04:17:00,44.6,39.7,30.16,ESE,105,0.0,0.0,83,0.00,,,0.00,meteobridge,2015-03-27 09:17:00,
2015-03-27 04:22:00,44.6,39.7,30.16,ESE,105,0.0,1.0,83,0.00,,,0.00,meteobridge,2015-03-27 09:22:00,
2015-03-27 04:27:00,44.4,39.9,30.16,ESE,105,0.0,1.0,84,0.00,,,0.00,meteobridge,2015-03-27 09:27:00,
2015-03-27 04:33:00,44.4,39.9,30.15,ESE,105,0.0,0.0,84,0.00,,,0.00,meteobridge,2015-03-27 09:33:00,
2015-03-27 04:38:00,44.2,39.7,30.15,ESE,105,0.0,0.0,84,0.00,,,0.00,meteobridge,2015-03-27 09:38:00,
2015-03-27 04:43:00,44.1,39.6,30.16,ESE,105,0.0,0.0,84,0.00,,,0.00,meteobridge,2015-03-27 09:43:00,
2015-03-27 04:48:00,43.9,39.7,30.16,ESE,105,0.0,0.0,85,0.00,,,0.00,meteobridge,2015-03-27 09:48:00,
2015-03-27 04:53:00,43.7,39.7,30.16,ESE,105,0.0,0.0,86,0.00,,,0.00,meteobridge,2015-03-27 09:53:00,
2015-03-27 04:59:00,43.5,39.6,30.16,ESE,105,0.0,0.0,86,0.00,,,0.00,meteobridge,2015-03-27 09:59:00,
2015-03-27 05:04:00,43.5,39.6,30.16,ESE,105,0.0,1.0,86,0.00,,,0.00,meteobridge,2015-03-27 10:04:00,
2015-03-27 05:09:00,43.3,39.2,30.16,ESE,105,0.0,0.0,85,0.00,,,0.00,meteobridge,2015-03-27 10:09:00,
2015-03-27 05:14:00,43.3,39.2,30.16,ESE,105,0.0,0.0,85,0.00,,,0.00,meteobridge,2015-03-27 10:14:00,
2015-03-27 05:19:00,43.2,39.0,30.16,ESE,105,0.0,0.0,85,0.00,,,0.00,meteobridge,2015-03-27 10:19:00,
2015-03-27 05:24:00,43.2,39.2,30.16,ESE,105,0.0,1.0,86,0.00,,,0.00,meteobridge,2015-03-27 10:24:00,